N495CX SBIZ-SBSI

Flight info

Callsign N495CX
Flight time 1h 47m
Altitude 43000
Route KOVTI DCT NUXOD UL540 VUGAR DCT KONKI DCT LOKEL DCT PUKUT
Aircraft FA50/M-SDFGHIM1RWXY/H

Departure

Time 2026-05-07 23:27
Airport Prefeito Renato Moreira Airport (SBIZ)

Arrival

Time 2026-05-08 01:14
Airport Presidente João Batista Figueiredo Airport (SBSI)
Time Latitude Longitude Altitude Speed Heading
2026-05-07 23:09 -5.53126 -47.45749 437 ft 0 kts 143°
2026-05-07 23:21 -5.53127 -47.45748 437 ft 0 kts 143°
2026-05-07 23:21 -5.53129 -47.45747 437 ft 0 kts 143°
2026-05-07 23:21 -5.53136 -47.45741 437 ft 3 kts 143°
2026-05-07 23:21 -5.53152 -47.45733 437 ft 4 kts 183°
2026-05-07 23:22 -5.53181 -47.45771 437 ft 4 kts 230°
2026-05-07 23:22 -5.53191 -47.45762 437 ft 3 kts 51°
2026-05-07 23:22 -5.53162 -47.45740 437 ft 7 kts 36°
2026-05-07 23:22 -5.53116 -47.45707 437 ft 6 kts 36°
2026-05-07 23:23 -5.53088 -47.45702 437 ft 3 kts 330°
2026-05-07 23:23 -5.53082 -47.45706 437 ft 0 kts 331°
2026-05-07 23:23 -5.53080 -47.45707 437 ft 0 kts 331°
2026-05-07 23:23 -5.53072 -47.45711 437 ft 2 kts 329°
2026-05-07 23:24 -5.53042 -47.45732 437 ft 9 kts 326°
2026-05-07 23:24 -5.52980 -47.45792 437 ft 13 kts 246°
2026-05-07 23:24 -5.53029 -47.45863 436 ft 11 kts 233°
2026-05-07 23:24 -5.53076 -47.45927 435 ft 10 kts 233°
2026-05-07 23:25 -5.53119 -47.45986 434 ft 9 kts 233°
2026-05-07 23:25 -5.53166 -47.46023 433 ft 6 kts 211°
2026-05-07 23:25 -5.53159 -47.46035 433 ft 1 kts 25°
2026-05-07 23:25 -5.53156 -47.46033 433 ft 0 kts 52°
2026-05-07 23:26 -5.52980 -47.45798 437 ft 84 kts 53°
2026-05-07 23:26 -5.52501 -47.45141 566 ft 135 kts 55°
2026-05-07 23:26 -5.51963 -47.44317 957 ft 156 kts 57°
2026-05-07 23:27 -5.50759 -47.42633 2043 ft 165 kts 47°
2026-05-07 23:27 -5.49751 -47.42157 2667 ft 167 kts
2026-05-07 23:27 -5.48695 -47.42582 3318 ft 170 kts 316°
2026-05-07 23:28 -5.48250 -47.43665 3929 ft 179 kts 274°
2026-05-07 23:28 -5.48353 -47.44969 4751 ft 195 kts 265°
2026-05-07 23:28 -5.48461 -47.46241 6023 ft 185 kts 268°
2026-05-07 23:28 -5.48531 -47.47525 6991 ft 192 kts 269°
2026-05-07 23:29 -5.48594 -47.48867 8014 ft 198 kts 268°
2026-05-07 23:29 -5.48656 -47.50240 9065 ft 203 kts 268°
2026-05-07 23:29 -5.48719 -47.51636 10147 ft 207 kts 266°
2026-05-07 23:29 -5.48785 -47.53075 11202 ft 211 kts 265°
2026-05-07 23:30 -5.48850 -47.54526 12217 ft 214 kts 265°
2026-05-07 23:30 -5.48919 -47.56015 13231 ft 217 kts 265°
2026-05-07 23:30 -5.48987 -47.57511 14207 ft 219 kts 264°
2026-05-07 23:30 -5.49056 -47.59038 15153 ft 222 kts 264°
2026-05-07 23:31 -5.49127 -47.60592 16078 ft 225 kts 264°
2026-05-07 23:31 -5.49197 -47.62146 16965 ft 228 kts 264°
2026-05-07 23:31 -5.49268 -47.63734 17835 ft 230 kts 264°
2026-05-07 23:31 -5.49341 -47.65335 18673 ft 233 kts 264°
2026-05-07 23:32 -5.49414 -47.66951 19481 ft 235 kts 264°
2026-05-07 23:32 -5.49488 -47.68603 20274 ft 238 kts 264°
2026-05-07 23:32 -5.49563 -47.70258 21038 ft 240 kts 264°
2026-05-07 23:32 -5.49639 -47.71940 21783 ft 243 kts 264°
2026-05-07 23:33 -5.49714 -47.73621 22501 ft 245 kts 264°
2026-05-07 23:33 -5.49791 -47.75323 23199 ft 248 kts 264°
2026-05-07 23:33 -5.49869 -47.77059 23886 ft 250 kts 264°
2026-05-07 23:33 -5.49948 -47.78811 24553 ft 252 kts 264°
2026-05-07 23:34 -5.50027 -47.80586 25204 ft 255 kts 264°
2026-05-07 23:34 -5.50107 -47.82362 25832 ft 257 kts 264°
2026-05-07 23:34 -5.50188 -47.84155 26443 ft 259 kts 264°
2026-05-07 23:34 -5.50269 -47.85968 27038 ft 261 kts 264°
2026-05-07 23:35 -5.50350 -47.87771 27611 ft 264 kts 264°
2026-05-07 23:35 -5.50432 -47.89624 28178 ft 266 kts 264°
2026-05-07 23:35 -5.50515 -47.91475 28725 ft 268 kts 264°
2026-05-07 23:35 -5.50600 -47.93359 29263 ft 270 kts 264°
2026-05-07 23:36 -5.50683 -47.95235 29780 ft 272 kts 264°
2026-05-07 23:36 -5.50769 -47.97142 30289 ft 274 kts 264°
2026-05-07 23:36 -5.50854 -47.99049 30780 ft 276 kts 264°
2026-05-07 23:36 -5.50939 -48.00969 31259 ft 278 kts 264°
2026-05-07 23:37 -5.51026 -48.02914 31728 ft 280 kts 264°
2026-05-07 23:37 -5.51113 -48.04873 32186 ft 282 kts 264°
2026-05-07 23:37 -5.51201 -48.06849 32634 ft 283 kts 264°
2026-05-07 23:37 -5.51288 -48.08812 33066 ft 285 kts 264°
2026-05-07 23:38 -5.51377 -48.10827 33495 ft 287 kts 264°
2026-05-07 23:38 -5.51467 -48.12840 33911 ft 289 kts 264°
2026-05-07 23:38 -5.51556 -48.14851 34314 ft 291 kts 264°
2026-05-07 23:38 -5.51645 -48.16869 34703 ft 292 kts 264°
2026-05-07 23:39 -5.51736 -48.18922 35087 ft 294 kts 264°
2026-05-07 23:39 -5.51828 -48.20995 35464 ft 296 kts 264°
2026-05-07 23:39 -5.51919 -48.23065 35830 ft 298 kts 264°
2026-05-07 23:39 -5.52012 -48.25155 36189 ft 300 kts 264°
2026-05-07 23:40 -5.52104 -48.27253 36531 ft 302 kts 264°
2026-05-07 23:40 -5.52197 -48.29350 36852 ft 304 kts 264°
2026-05-07 23:40 -5.52291 -48.31493 37169 ft 306 kts 264°
2026-05-07 23:40 -5.52386 -48.33633 37479 ft 308 kts 264°
2026-05-07 23:41 -5.52480 -48.35783 37778 ft 310 kts 264°
2026-05-07 23:41 -5.52576 -48.37965 38072 ft 312 kts 264°
2026-05-07 23:41 -5.52672 -48.40140 38355 ft 314 kts 264°
2026-05-07 23:41 -5.52899 -48.42313 38622 ft 314 kts 255°
2026-05-07 23:42 -5.53406 -48.44466 38890 ft 314 kts 252°
2026-05-07 23:42 -5.53979 -48.46584 39155 ft 316 kts 251°
2026-05-07 23:42 -5.54572 -48.48711 39411 ft 317 kts 251°
2026-05-07 23:42 -5.55171 -48.50842 39659 ft 319 kts 251°
2026-05-07 23:43 -5.55776 -48.52989 39901 ft 321 kts 251°
2026-05-07 23:43 -5.56393 -48.55178 40141 ft 323 kts 251°
2026-05-07 23:43 -5.56995 -48.57317 40368 ft 324 kts 251°
2026-05-07 23:43 -5.57612 -48.59507 40594 ft 326 kts 251°
2026-05-07 23:44 -5.58238 -48.61729 40816 ft 327 kts 251°
2026-05-07 23:44 -5.58851 -48.63907 41020 ft 325 kts 251°
2026-05-07 23:44 -5.60083 -48.68283 41039 ft 323 kts 251°
2026-05-07 23:45 -5.61302 -48.72613 40936 ft 325 kts 251°
2026-05-07 23:45 -5.62545 -48.77032 40883 ft 324 kts 251°
2026-05-07 23:46 -5.63663 -48.81004 40888 ft 327 kts 251°
2026-05-07 23:46 -5.64930 -48.85508 40895 ft 344 kts 251°
2026-05-07 23:47 -5.66262 -48.90246 40895 ft 361 kts 251°
2026-05-07 23:47 -5.67660 -48.95220 40894 ft 379 kts 251°
2026-05-07 23:48 -5.69132 -49.00461 40893 ft 396 kts 252°
2026-05-07 23:48 -5.70660 -49.05902 40892 ft 413 kts 252°
2026-05-07 23:49 -5.72259 -49.11598 40892 ft 429 kts 252°
2026-05-07 23:49 -5.74204 -49.17305 40903 ft 439 kts 239°
2026-05-07 23:50 -5.77940 -49.22243 40894 ft 447 kts 225°
2026-05-07 23:50 -5.82158 -49.26936 40890 ft 458 kts 225°
2026-05-07 23:51 -5.86463 -49.31735 40889 ft 467 kts 225°
2026-05-07 23:51 -5.90860 -49.36636 40888 ft 473 kts 225°
2026-05-07 23:52 -5.95296 -49.41583 40887 ft 479 kts 225°
2026-05-07 23:52 -5.99783 -49.46588 40887 ft 483 kts 225°
2026-05-07 23:53 -6.04278 -49.51604 40886 ft 485 kts 225°
2026-05-07 23:53 -6.08825 -49.56678 40886 ft 487 kts 225°
2026-05-07 23:54 -6.13375 -49.61756 40889 ft 489 kts 225°
2026-05-07 23:54 -6.17899 -49.66808 40885 ft 490 kts 226°
2026-05-07 23:55 -6.22481 -49.71925 40885 ft 490 kts 226°
2026-05-07 23:55 -6.27065 -49.77047 40885 ft 490 kts 226°
2026-05-07 23:56 -6.31603 -49.82118 40885 ft 491 kts 226°
2026-05-07 23:56 -6.36175 -49.87229 40885 ft 491 kts 226°
2026-05-07 23:57 -6.40761 -49.92357 40885 ft 491 kts 226°
2026-05-07 23:57 -6.45303 -49.97438 40885 ft 491 kts 226°
2026-05-07 23:58 -6.49890 -50.02569 40885 ft 491 kts 226°
2026-05-07 23:58 -6.54472 -50.07697 40885 ft 491 kts 226°
2026-05-07 23:59 -6.59034 -50.12804 40885 ft 491 kts 226°
2026-05-07 23:59 -6.63623 -50.17943 40885 ft 491 kts 226°
2026-05-08 00:00 -6.68201 -50.23070 40885 ft 491 kts 226°
2026-05-08 00:00 -6.72786 -50.28206 40885 ft 491 kts 226°
2026-05-08 00:01 -6.77377 -50.33351 40885 ft 491 kts 226°
2026-05-08 00:01 -6.81945 -50.38471 40885 ft 491 kts 226°
2026-05-08 00:02 -6.86504 -50.43583 40885 ft 491 kts 226°
2026-05-08 00:02 -6.91068 -50.48702 40885 ft 489 kts 226°
2026-05-08 00:03 -6.95577 -50.53760 40885 ft 486 kts 226°
2026-05-08 00:03 -7.00086 -50.58821 40884 ft 484 kts 226°
2026-05-08 00:04 -7.04568 -50.63852 40884 ft 482 kts 226°
2026-05-08 00:04 -7.09041 -50.68876 40882 ft 482 kts 226°
2026-05-08 00:05 -7.13506 -50.73892 40886 ft 482 kts 226°
2026-05-08 00:05 -7.17968 -50.78907 40768 ft 477 kts 226°
2026-05-08 00:06 -7.22376 -50.83867 40779 ft 476 kts 226°
2026-05-08 00:06 -7.26791 -50.88834 40778 ft 477 kts 226°
2026-05-08 00:07 -7.31211 -50.93810 40777 ft 478 kts 226°
2026-05-08 00:07 -7.35674 -50.98835 40777 ft 479 kts 226°
2026-05-08 00:08 -7.40127 -51.03849 40777 ft 480 kts 226°
2026-05-08 00:08 -7.44555 -51.08835 40777 ft 481 kts 226°
2026-05-08 00:09 -7.49051 -51.13899 40777 ft 482 kts 227°
2026-05-08 00:09 -7.53513 -51.18927 40777 ft 483 kts 226°
2026-05-08 00:10 -7.57992 -51.23976 40777 ft 483 kts 226°
2026-05-08 00:10 -7.62462 -51.29016 40777 ft 483 kts 227°
2026-05-08 00:11 -7.66958 -51.34087 40777 ft 483 kts 227°
2026-05-08 00:11 -7.71435 -51.39141 40777 ft 483 kts 227°
2026-05-08 00:12 -7.75886 -51.44165 40776 ft 483 kts 227°
2026-05-08 00:12 -7.80377 -51.49237 40776 ft 483 kts 227°
2026-05-08 00:13 -7.84852 -51.54293 40776 ft 483 kts 227°
2026-05-08 00:13 -7.89307 -51.59327 40776 ft 483 kts 227°
2026-05-08 00:14 -7.93789 -51.64394 40776 ft 483 kts 227°
2026-05-08 00:14 -7.98266 -51.69457 40775 ft 483 kts 227°
2026-05-08 00:15 -8.02732 -51.74510 40775 ft 483 kts 227°
2026-05-08 00:15 -8.07209 -51.79576 40775 ft 483 kts 227°
2026-05-08 00:16 -8.11686 -51.84645 40778 ft 483 kts 227°
2026-05-08 00:16 -8.16159 -51.89709 40777 ft 483 kts 227°
2026-05-08 00:17 -8.20600 -51.94739 40777 ft 483 kts 227°
2026-05-08 00:17 -8.25080 -51.99815 40777 ft 483 kts 227°
2026-05-08 00:18 -8.29557 -52.04888 40777 ft 483 kts 227°
2026-05-08 00:18 -8.34034 -52.09965 40777 ft 483 kts 227°
2026-05-08 00:19 -8.38499 -52.15029 40777 ft 483 kts 227°
2026-05-08 00:19 -8.42967 -52.20098 40773 ft 477 kts 227°
2026-05-08 00:20 -8.47288 -52.25008 40770 ft 460 kts 227°
2026-05-08 00:20 -8.51464 -52.29754 40772 ft 448 kts 227°
2026-05-08 00:21 -8.55547 -52.34396 40773 ft 438 kts 227°
2026-05-08 00:21 -8.59552 -52.38949 40773 ft 430 kts 226°
2026-05-08 00:22 -8.63497 -52.43433 40774 ft 423 kts 226°
2026-05-08 00:22 -8.67364 -52.47829 40774 ft 417 kts 226°
2026-05-08 00:23 -8.71200 -52.52193 40774 ft 411 kts 226°
2026-05-08 00:23 -8.74960 -52.56471 40774 ft 407 kts 226°
2026-05-08 00:24 -8.78710 -52.60738 40775 ft 403 kts 226°
2026-05-08 00:24 -8.82406 -52.64947 40775 ft 399 kts 226°
2026-05-08 00:25 -8.86058 -52.69105 40773 ft 395 kts 226°
2026-05-08 00:25 -8.89694 -52.73248 40774 ft 392 kts 226°
2026-05-08 00:26 -8.93308 -52.77366 40774 ft 390 kts 226°
2026-05-08 00:26 -8.96881 -52.81440 40773 ft 387 kts 227°
2026-05-08 00:27 -9.00445 -52.85503 40774 ft 385 kts 227°
2026-05-08 00:27 -9.03981 -52.89537 40775 ft 383 kts 227°
2026-05-08 00:28 -9.07151 -52.93154 40774 ft 381 kts 228°
2026-05-08 00:28 -9.10669 -52.97171 40784 ft 389 kts 229°
2026-05-08 00:29 -9.14334 -53.01360 40784 ft 407 kts 229°
2026-05-08 00:29 -9.18147 -53.05720 40784 ft 423 kts 229°
2026-05-08 00:30 -9.22089 -53.10227 40783 ft 437 kts 229°
2026-05-08 00:30 -9.26163 -53.14888 40782 ft 449 kts 229°
2026-05-08 00:31 -9.30374 -53.19706 40781 ft 460 kts 229°
2026-05-08 00:31 -9.34635 -53.24584 40780 ft 468 kts 229°
2026-05-08 00:32 -9.38976 -53.29555 40779 ft 474 kts 229°
2026-05-08 00:32 -9.43352 -53.34569 40778 ft 478 kts 229°
2026-05-08 00:33 -9.47765 -53.39627 40777 ft 481 kts 229°
2026-05-08 00:33 -9.52211 -53.44726 40777 ft 483 kts 229°
2026-05-08 00:34 -9.56659 -53.49825 40777 ft 485 kts 229°
2026-05-08 00:34 -9.61123 -53.54944 40776 ft 486 kts 229°
2026-05-08 00:35 -9.65574 -53.60050 40776 ft 486 kts 229°
2026-05-08 00:35 -9.70061 -53.65199 40776 ft 486 kts 229°
2026-05-08 00:36 -9.74534 -53.70334 40777 ft 486 kts 229°
2026-05-08 00:36 -9.79000 -53.75465 40777 ft 486 kts 229°
2026-05-08 00:37 -9.83461 -53.80590 40777 ft 486 kts 229°
2026-05-08 00:38 -9.90151 -53.88286 40777 ft 486 kts 229°
2026-05-08 00:38 -9.94625 -53.93436 40777 ft 486 kts 229°
2026-05-08 00:39 -9.99069 -53.98555 40777 ft 486 kts 229°
2026-05-08 00:39 -10.03546 -54.03714 40777 ft 486 kts 229°
2026-05-08 00:40 -10.08001 -54.08850 40777 ft 486 kts 229°
2026-05-08 00:40 -10.12417 -54.13941 40776 ft 486 kts 229°
2026-05-08 00:41 -10.16781 -54.18975 40776 ft 486 kts 229°
2026-05-08 00:41 -10.21241 -54.24122 40776 ft 486 kts 229°
2026-05-08 00:42 -10.25688 -54.29257 40776 ft 486 kts 229°
2026-05-08 00:42 -10.30142 -54.34402 40776 ft 486 kts 229°
2026-05-08 00:43 -10.34580 -54.39531 40776 ft 486 kts 229°
2026-05-08 00:43 -10.39004 -54.44646 40776 ft 486 kts 229°
2026-05-08 00:44 -10.43468 -54.49810 40776 ft 486 kts 229°
2026-05-08 00:44 -10.47899 -54.54939 40776 ft 486 kts 229°
2026-05-08 00:45 -10.52336 -54.60075 40435 ft 476 kts 229°
2026-05-08 00:45 -10.54491 -54.62571 40056 ft 465 kts 229°
2026-05-08 00:45 -10.56584 -54.64996 39604 ft 459 kts 229°
2026-05-08 00:45 -10.58654 -54.67395 39156 ft 453 kts 229°
2026-05-08 00:46 -10.60730 -54.69801 38702 ft 449 kts 229°
2026-05-08 00:46 -10.62776 -54.72173 38252 ft 446 kts 229°
2026-05-08 00:46 -10.64794 -54.74513 37805 ft 443 kts 229°
2026-05-08 00:46 -10.66817 -54.76860 37201 ft 444 kts 229°
2026-05-08 00:47 -10.68862 -54.79232 36504 ft 446 kts 229°
2026-05-08 00:47 -10.70893 -54.81588 35813 ft 447 kts 229°
2026-05-08 00:47 -10.72941 -54.83965 35116 ft 448 kts 229°
2026-05-08 00:47 -10.74995 -54.86350 34418 ft 449 kts 229°
2026-05-08 00:48 -10.77037 -54.88721 33723 ft 449 kts 229°
2026-05-08 00:48 -10.79112 -54.91131 33017 ft 448 kts 229°
2026-05-08 00:48 -10.81139 -54.93485 32326 ft 448 kts 229°
2026-05-08 00:48 -10.83173 -54.95848 31631 ft 446 kts 229°
2026-05-08 00:49 -10.85208 -54.98213 30933 ft 445 kts 229°
2026-05-08 00:49 -10.87246 -55.00582 30232 ft 443 kts 229°
2026-05-08 00:49 -10.89267 -55.02932 29533 ft 441 kts 229°
2026-05-08 00:49 -10.91284 -55.05278 28832 ft 439 kts 229°
2026-05-08 00:50 -10.93292 -55.07614 28129 ft 437 kts 229°
2026-05-08 00:50 -10.95290 -55.09938 27424 ft 436 kts 230°
2026-05-08 00:50 -10.97286 -55.12259 26722 ft 438 kts 230°
2026-05-08 00:50 -10.99291 -55.14594 26027 ft 440 kts 230°
2026-05-08 00:51 -11.01297 -55.16930 25334 ft 442 kts 230°
2026-05-08 00:51 -11.03324 -55.19290 24637 ft 443 kts 230°
2026-05-08 00:51 -11.05344 -55.21643 23945 ft 445 kts 230°
2026-05-08 00:51 -11.07374 -55.24009 23253 ft 446 kts 230°
2026-05-08 00:52 -11.09466 -55.26448 22585 ft 466 kts 230°
2026-05-08 00:52 -11.11603 -55.28938 21867 ft 477 kts 230°
2026-05-08 00:52 -11.13808 -55.31509 21119 ft 486 kts 230°
2026-05-08 00:52 -11.16030 -55.34100 20376 ft 493 kts 229°
2026-05-08 00:53 -11.18284 -55.36729 19630 ft 498 kts 229°
2026-05-08 00:53 -11.20575 -55.39401 19060 ft 497 kts 229°
2026-05-08 00:53 -11.22845 -55.42051 18589 ft 495 kts 229°
2026-05-08 00:53 -11.25100 -55.44684 18166 ft 493 kts 229°
2026-05-08 00:54 -11.27348 -55.47308 17783 ft 491 kts 229°
2026-05-08 00:54 -11.29641 -55.49872 17425 ft 489 kts 221°
2026-05-08 00:54 -11.32317 -55.51970 17094 ft 486 kts 214°
2026-05-08 00:54 -11.35342 -55.53416 16791 ft 480 kts 194°
2026-05-08 00:55 -11.38632 -55.53847 16510 ft 474 kts 181°
2026-05-08 00:55 -11.41905 -55.54044 16256 ft 472 kts 182°
2026-05-08 00:55 -11.45090 -55.54344 15639 ft 459 kts 183°
2026-05-08 00:55 -11.48220 -55.54236 14871 ft 446 kts 165°
2026-05-08 00:56 -11.51010 -55.53050 14122 ft 431 kts 144°
2026-05-08 00:56 -11.53108 -55.50975 13377 ft 420 kts 122°
2026-05-08 00:56 -11.54256 -55.48314 12625 ft 398 kts 101°
2026-05-08 00:56 -11.54282 -55.45620 11876 ft 375 kts 78°
2026-05-08 00:57 -11.53244 -55.43257 11129 ft 364 kts 54°
2026-05-08 00:57 -11.51364 -55.41629 10392 ft 360 kts 30°
2026-05-08 00:57 -11.49065 -55.40972 9685 ft 360 kts
2026-05-08 00:57 -11.47321 -55.40844 9169 ft 357 kts
2026-05-08 00:58 -11.44891 -55.40959 8418 ft 354 kts 349°
2026-05-08 00:58 -11.42818 -55.42054 7667 ft 321 kts 322°
2026-05-08 00:58 -11.41750 -55.43579 7026 ft 302 kts 295°
2026-05-08 00:58 -11.41581 -55.45604 6738 ft 296 kts 259°
2026-05-08 00:59 -11.42562 -55.47449 6785 ft 302 kts 226°
2026-05-08 00:59 -11.44292 -55.48617 6577 ft 303 kts 204°
2026-05-08 00:59 -11.46232 -55.49478 6320 ft 298 kts 201°
2026-05-08 00:59 -11.48151 -55.50314 6052 ft 303 kts 202°
2026-05-08 01:00 -11.50057 -55.51128 5780 ft 298 kts 201°
2026-05-08 01:00 -11.51990 -55.51946 5505 ft 300 kts 202°
2026-05-08 01:00 -11.53922 -55.52757 5504 ft 298 kts 202°
2026-05-08 01:00 -11.55851 -55.53563 5999 ft 297 kts 201°
2026-05-08 01:01 -11.57763 -55.54380 6502 ft 300 kts 202°
2026-05-08 01:01 -11.59692 -55.55220 6806 ft 303 kts 201°
2026-05-08 01:01 -11.61646 -55.56079 6782 ft 306 kts 201°
2026-05-08 01:01 -11.63219 -55.56772 6776 ft 306 kts 202°
2026-05-08 01:02 -11.65164 -55.57617 6779 ft 305 kts 201°
2026-05-08 01:02 -11.67125 -55.58479 6784 ft 306 kts 201°
2026-05-08 01:02 -11.69058 -55.59328 6775 ft 300 kts 201°
2026-05-08 01:02 -11.70984 -55.60169 6783 ft 304 kts 202°
2026-05-08 01:03 -11.72895 -55.60998 6774 ft 303 kts 201°
2026-05-08 01:03 -11.74864 -55.61855 6781 ft 303 kts 201°
2026-05-08 01:03 -11.76788 -55.62689 6781 ft 302 kts 201°
2026-05-08 01:03 -11.78751 -55.63548 6784 ft 303 kts 201°
2026-05-08 01:04 -11.80671 -55.64396 6707 ft 302 kts 202°
2026-05-08 01:04 -11.82583 -55.65231 6467 ft 300 kts 202°
2026-05-08 01:04 -11.84534 -55.66085 6206 ft 302 kts 202°
2026-05-08 01:04 -11.86444 -55.66905 5954 ft 301 kts 201°
2026-05-08 01:05 -11.88383 -55.67727 5714 ft 301 kts 202°
2026-05-08 01:05 -11.90357 -55.68444 5453 ft 297 kts 187°
2026-05-08 01:05 -11.92331 -55.68232 5213 ft 294 kts 154°
2026-05-08 01:05 -11.93883 -55.66988 4994 ft 277 kts 122°
2026-05-08 01:06 -11.94429 -55.65172 4999 ft 270 kts 87°
2026-05-08 01:06 -11.93885 -55.63399 5008 ft 265 kts 53°
2026-05-08 01:06 -11.92453 -55.62256 5011 ft 263 kts 22°
2026-05-08 01:06 -11.90677 -55.61992 4865 ft 261 kts 352°
2026-05-08 01:07 -11.89076 -55.62779 4387 ft 260 kts 317°
2026-05-08 01:07 -11.88231 -55.64354 3898 ft 255 kts 282°
2026-05-08 01:07 -11.88462 -55.66075 3401 ft 240 kts 243°
2026-05-08 01:07 -11.89597 -55.67207 2936 ft 228 kts 213°
2026-05-08 01:08 -11.90883 -55.67988 2757 ft 205 kts 208°
2026-05-08 01:08 -11.92032 -55.68531 2820 ft 153 kts 205°
2026-05-08 01:08 -11.92931 -55.68917 2783 ft 133 kts 204°
2026-05-08 01:08 -11.93787 -55.69279 2787 ft 130 kts 204°
2026-05-08 01:09 -11.94676 -55.69460 2789 ft 135 kts 172°
2026-05-08 01:09 -11.95467 -55.69010 2797 ft 133 kts 127°
2026-05-08 01:09 -11.95748 -55.68135 2801 ft 127 kts 84°
2026-05-08 01:09 -11.95644 -55.67232 2799 ft 131 kts 83°
2026-05-08 01:10 -11.95689 -55.66319 2793 ft 130 kts 96°
2026-05-08 01:10 -11.95881 -55.65416 2798 ft 129 kts 102°
2026-05-08 01:10 -11.96127 -55.64560 2776 ft 123 kts 105°
2026-05-08 01:10 -11.96387 -55.63741 2794 ft 119 kts 105°
2026-05-08 01:11 -11.96655 -55.62926 2796 ft 121 kts 106°
2026-05-08 01:11 -11.96903 -55.62106 2788 ft 121 kts 93°
2026-05-08 01:11 -11.96704 -55.61330 2799 ft 113 kts 49°
2026-05-08 01:11 -11.96059 -55.60895 2808 ft 112 kts 19°
2026-05-08 01:12 -11.95328 -55.60628 2792 ft 113 kts 17°
2026-05-08 01:12 -11.94588 -55.60372 2788 ft 110 kts 17°
2026-05-08 01:12 -11.93847 -55.60115 2683 ft 111 kts 17°
2026-05-08 01:12 -11.93109 -55.59869 2557 ft 111 kts 14°
2026-05-08 01:13 -11.92367 -55.59675 2405 ft 111 kts 12°
2026-05-08 01:13 -11.91609 -55.59489 2230 ft 111 kts 12°
2026-05-08 01:13 -11.90857 -55.59304 1901 ft 114 kts 12°
2026-05-08 01:13 -11.90104 -55.59117 1540 ft 108 kts 15°
2026-05-08 01:14 -11.89369 -55.58855 1337 ft 111 kts 12°
2026-05-08 01:14 -11.88670 -55.58673 1235 ft 86 kts
2026-05-08 01:14 -11.88383 -55.58602 1231 ft 29 kts 13°
2026-05-08 01:14 -11.88190 -55.58550 1231 ft 30 kts 17°
2026-05-08 01:15 -11.87982 -55.58494 1231 ft 32 kts 13°
2026-05-08 01:15 -11.87837 -55.58452 1230 ft 15 kts 36°
2026-05-08 01:15 -11.87834 -55.58364 1229 ft 11 kts 104°
2026-05-08 01:15 -11.87849 -55.58304 1229 ft 6 kts 104°
2026-05-08 01:16 -11.87857 -55.58275 1229 ft 1 kts 104°
2026-05-08 01:16 -11.87863 -55.58254 1229 ft 5 kts 104°
2026-05-08 01:16 -11.87865 -55.58244 1228 ft 0 kts 105°